Regional Weather Roundup
Issued by NWS Upton, NY

Current Version | Previous Version | Text Only | Print | Product List | Glossary On
Versions: 1 2 3 4 5 6 7 8 9 10 11 12 13 14 15 16 17 18 19 20 21 22 23 24 25 26 27 28 29 30 31 32 33 34 35 36 37 38 39 40 41 42 43 44 45 46 47 48 49 50
000
ASUS41 KOKX 182014
RWROKX

Regional Weather Roundup
National Weather Service New York NY
300 PM EST TUE FEB 18 2020

Note: "FAIR" indicates few or no clouds below 12,000 feet with no
significant weather and/or obstructions to visibility.

NYZ071-072-176-178-NJZ106-104-182100-
New York City Metro Area

CITY           SKY/WX    TMP DP  RH WIND       PRES   REMARKS
Central Park   CLOUDY    45  39  79 NE5       30.11S
Bronx Lehman C   N/A     41  37  87 E8          N/A
LaGuardia Arpt CLOUDY    41  36  82 NE12      30.09F
Queens College   N/A    N/A N/A N/A NE6         N/A
Kennedy Intl   CLOUDY    46  45  93 E14       30.08F
Breezy Point     N/A     45 N/A N/A E10G16      N/A
Brooklyn Coll    N/A     46  43  87 E8          N/A
Staten Island    N/A     48  43  81 E5          N/A
Newark/Liberty CLOUDY    49  42  77 NE6       30.09S
Teterboro      CLOUDY    44  38  79 NE7       30.09F
$$

NYZ177-179-078>081-182100-
Long Island New York

CITY           SKY/WX    TMP DP  RH WIND       PRES   REMARKS
Jones Beach      N/A     43 N/A N/A E13         N/A
Wantagh          N/A     45  43  93 E8          N/A
Hempstead        N/A     45  43  93 E3        30.12
Matinecock Pt    N/A     39 N/A N/A E15         N/A  WCI  31
Farmingdale    LGT RAIN  47  42  83 E10       30.07F
MacArthur/ISP  LGT RAIN  44  44 100 E5        30.08F FOG
Stony Brook      N/A     43  41  93 E6          N/A
Shirley        LGT RAIN  44  41  89 VRB5      30.09F FOG
Mt Sinai Harb    N/A    N/A N/A N/A E7          N/A
Westhampton    CLOUDY    42  41  96 E8        30.10F
East Hampton   CLOUDY    42  40  94 E14G22    30.10F FOG
Southold         N/A     43  41  93 E8          N/A
Montauk          N/A     43  40  89 E8G20     30.13F
$$

NYZ052-065-067-182100-
Hudson Valley

CITY           SKY/WX    TMP DP  RH WIND       PRES   REMARKS
White Plains   LGT RAIN  40  36  86 E9        30.08F FOG     WCI  34
Larchmont Harb   N/A     37 N/A N/A N16         N/A  WCI  28
Croton On Huds   N/A     43 N/A N/A CALM        N/A
Somers           N/A     41  37  87 SE6         N/A
Brewster         N/A     39  36  87 S5          N/A
Newburgh       CLOUDY    41  37  87 CALM      30.10F
Montgomery     LGT RAIN  36  30  79 CALM      30.07F
Otisville        N/A     34  32  93 N2          N/A
Warwick          N/A     41  37  87 NE2         N/A
Suffern          N/A     41  37  87 NE2         N/A
Poughkeepsie   CLOUDY    42  35  76 CALM      30.10F
Albany         CLOUDY    36  30  79 S10       30.05F WCI  28
$$

NJZ001-105-106-008-010-013-015-019>022-104-182100-
New Jersey

CITY           SKY/WX    TMP DP  RH WIND       PRES   REMARKS
Newark/Liberty CLOUDY    49  42  77 NE6       30.09S
Teterboro      CLOUDY    44  38  79 NE7       30.09F
Caldwell       CLOUDY    47  39  74 NE5       30.09F
Somerville     CLOUDY    52  42  69 E5        30.04F
Linden         CLOUDY    47  42  82 SE9       30.08F
Perth Amboy      N/A     45 N/A N/A E3          N/A
Sussex         LGT RAIN  43  36  76 E3        30.06F
Andover          N/A     46  39  76 VRB3      30.06F
Trenton        CLOUDY    57  46  66 SE5       30.03F
Millville      FAIR      61  42  49 S8        30.03F
Atlantic City  FAIR      62  48  60 S8        30.04F
Wrightstown    PTSUNNY   63  45  51 S7        30.02
Toms River     PTSUNNY   58  56  93 SE5       30.04F
Belmar         CLOUDY    50  47  89 CALM      30.06F
$$

PAZ047>061-062-071-182100-
Eastern Pennsylvania

CITY           SKY/WX    TMP DP  RH WIND       PRES   REMARKS
Philadelphia   PTSUNNY   60  40  47 SW10      30.04F
Allentown      LGT RAIN  53  42  66 S5        30.03F
Scranton       LGT RAIN  45  38  76 SW6       30.01F
$$

CTZ002-004>006-009-010-012-RIZ004-006-007-MAZ004-011-015-182100-
Southern New England

 In CT

CITY           SKY/WX    TMP DP  RH WIND       PRES   REMARKS
Bradley Intl   CLOUDY    34  30  85 N7        30.14F WCI  28
Hartford       CLOUDY    39  35  86 NE6       30.14F WCI  35
Danbury        CLOUDY    39  36  89 E8        30.11F FOG     WCI  33
Wtrbury/Oxford CLOUDY    38  36  92 E10G17    30.10F WCI  31
Norwalk Harbor   N/A     37 N/A N/A NE20        N/A  WCI  27
Bridgeport     LGT RAIN  40  38  93 E15       30.11F FOG     WCI  32
Meriden        CLOUDY    40  36  86 E5        30.12F
New Haven      CLOUDY    41  38  89 E10G21    30.11F FOG
Chester        NOT AVBL
Groton         LGT RAIN  39  38  96 E12       30.13F FOG     WCI  32
Willimantic    CLOUDY    38  35  89 E5        30.15F WCI  34

 In RI

CITY           SKY/WX    TMP DP  RH WIND       PRES   REMARKS
Providence     CLOUDY    38  35  89 SE9       30.18F WCI  31
Block Island   CLOUDY    40  38  93 E13G21    30.14F WCI  32
Westerly       CLOUDY    42  36  79 E13       30.15F

In MA

CITY           SKY/WX    TMP DP  RH WIND       PRES   REMARKS
Boston         CLOUDY    40  32  73 SE14      30.22  WCI  32
Worcester      CLOUDY    33  31  92 E6        30.14F FOG     WCI  28
Westfield      CLOUDY    32  28  85 N6        30.15F WCI  26
Provincetown   LGT RAIN  37  35  92 SE16G24   30.22F WCI  28
Nantucket      CLOUDY    43  38  82 E20G28    30.17F
$$

ANZ330-335-338-340-345-350-353-355-182100-
Coastal Marine Observations


STATION/POSITION TIME  SKY/WX   TEMP    WIND        PRES    VSBY  WAVE
                                AIR SEA DIR/SP/G                  HT/PER
                 (UTC)          (F)     (DEG/KT/KT) (MB)    (MI)  (FT/S)
NY Harb Entrance 1950            45      70/  8/ 16 1018.2          6/ 7
20 S Fire Island 1950            50 44              1017.4          8/ 8
Great South Bay  NOT AVBL
23 SSW Montauk P NOT AVBL
15 E Barnegat Li 1930               45                N/A           7/ 8
Hudson Canyon    1950            53 47              1018.8          9/ 8
Kings Point      1930            41 41   70/  6/  6 1019.5
Execution Rocks  1930            39 32   60/ 16/ 19   N/A
Western LI Sound 1920            40      70/ 16/ 19   N/A           2/ 4
Central LI Sound NOT AVBL
Robbins Reef     1930            47     110/ 10/ 12 1018.5
$$


>>>>>>>>>>>>>>>>>>>>>>>>>>>> KEY <<<<<<<<<<<<<<<<<<<<<<<<<<<
>                                                          <
>     SKY/WX - Sky Condition/Present Weather               <
>     TMP    - Temperature in Fahrenheit                   <
>     DP     - Dew Point in Fahrenheit                     <
>     RH     - Relative Humidity in Percent                <
>     WIND   - Direction (from) and Speed in MPH           <
>     PRES   - Mean Sea Level Pressure (inches of Hg)      <
>     WCI    - Wind Chill Index                            <
>     VSB    - Visibility in Miles                         <
>     HX     - Heat Index                                  <
>     TC     - Temperature in Celsius                      <
>     VRB    - Variable Wind Direction                     <
>                                                          <
>>>>>>>>>>>>>>>>>>>>>>>>>>>> KEY <<<<<<<<<<<<<<<<<<<<<<<<<<<



USA.gov is the U.S. government's official web portal to all federal, state and local government web resources and services.